Regional Weather Roundup
Issued by NWS Newport/Morehead, NC

Current Version | Previous Version | Graphics & Text | Print | Product List | Glossary Off
Versions: 1 2 3 4 5 6 7 8 9 10 11 12 13 14 15 16 17 18 19 20 21 22 23 24 25 26 27 28 29 30 31 32 33 34 35 36 37 38 39 40 41 42 43 44 45 46 47 48 49 50

000
ASUS42 KMHX 281224
RWRMHX
WEATHER ROUNDUP FOR EASTERN NORTH CAROLINA
NATIONAL WEATHER SERVICE NEWPORT/MOREHEAD CITY NC
800 AM EDT TUE JUL 28 2015

NOTE: "FAIR" INDICATES FEW OR NO CLOUDS BELOW 12,000 FEET
WITH NO SIGNIFICANT WEATHER AND/OR OBSTRUCTIONS TO VISIBILITY

NCZ015>017-031-032-045>047-102-103-281300-
NORTH COAST

CITY           SKY/WX    TMP DP  RH WIND       PRES   REMARKS
EDENTON        SUNNY     78  72  81 CALM      30.03S
ELIZABETH CITY MOSUNNY   80  73  79 SE3       30.03S
KITTY HAWK     SUNNY     79  72  79 CALM      30.03R
MANTEO         SUNNY     80  70  71 SE5       30.05R

$$

NCZ045>047-081-094-103-104-281300-
CENTRAL COAST

CITY           SKY/WX    TMP DP  RH WIND       PRES   REMARKS
FRISCO         SUNNY     79  71  76 NE3       30.02R
SWANQUARTER      N/A     81 N/A N/A NE2       30.00R

$$

NCZ095-097-098-100-101-281300-
SOUTHERN COAST

CITY           SKY/WX    TMP DP  RH WIND       PRES   REMARKS
BEAUFORT       SUNNY     79  73  82 NE5       30.00R
CEDAR ISLAND     N/A     81 N/A N/A NE9       30.06S
JACKSONVILLE   SUNNY     78  71  79 NE8       30.00R
PINEY ISLAND   SUNNY    N/A N/A N/A E10       30.01R
WILMINGTON     SUNNY     76  72  87 NE8       30.00R


$$

NCZ011>013-027>030-043-044-078>080-089-090>093-098-281300-
COASTAL PLAIN

CITY           SKY/WX    TMP DP  RH WIND       PRES   REMARKS
AHOSKIE        SUNNY     73  70  93 S3        30.03S
CLINTON        SUNNY     76  73  91 E5        30.02S
ELIZABETHTOWN  SUNNY     75  74  98 CALM      30.01S
GOLDSBORO      SUNNY     76  73  90 E2        30.01R
GREENVILLE     SUNNY     77  73  88 CALM      30.04S
HAVELOCK       SUNNY     78  71  79 E7        30.02R
KENANSVILLE    SUNNY     74  72  92 CALM      30.03S
KINSTON        SUNNY     75  72  88 CALM      30.04R
NEW BERN       SUNNY     77  71  82 NE6       30.03R
RICHLANDS      SUNNY     75  68  78 N3        30.02S
ROCKY MOUNT    SUNNY     75  72  90 CALM      30.03R
WASHINGTON     SUNNY     75  72  89 NE3       30.03S
WHITEVILLE     SUNNY     74  72  92 NE5       30.00R

$$

AMZ130-135-150-152-154-156-158-170-250-252-270-ANZ085-086-088-633-658-670-281300-
MARINE OBSERVATIONS

STATION/POSITION TIME  TEMP    WIND        PRES    WAVE   SWELL
                       AIR SEA DIR/SP/G            HT/PER HT/PER
                 (UTC) (F)     (DEG/KT/KT) (MB)    (FT/S) (FT/S)
CHESAPEAKE LIGHT 1200   80     190/  6/  7 1017.8
64 E VA BEACH    1150   80 80  130/  2/  2 1016.7    2/11   2/11
DUCK             1200   80 68  130/  5/  5 1016.2
2 E DUCK         1211      79                N/A     2/11   2/11
OREGON INLET     1200   80 81   90/  5/  6 1016.9
13E OREGON INLT  1200      79                N/A     2/11   2/11
HATTERAS CG      1200   80 82   60/  7/  9 1016.3
DIAMOND BUOY     NOT AVBL
CAPE LOOKOUT     1200   81      60/ 12/ 14 1015.6
BEAUFORT LAB     1200   80 81   40/  4/  6 1015.3
30 SE NEW RVR IN NOT AVBL
27 SE WRIGHTSVLE 1200   78 81   70/ 14/ 16   N/A
5 SE WRIGHTSVLE  1108   81 81   80/ 12/ 16 1015.0
225 S CAPE HAT   1150   83 82  240/ 16/ 17 1014.8    6/ 6   2/10
41 SE CHARLESTON 1150   83 84   30/ 10/ 12 1013.6    3/ 7   3/ 7

$$


USA.gov is the U.S. government's official web portal to all federal, state and local government web resources and services.